Year,Month,Day,Hour,Minute,Value (Times are PST for temperature in C)
2009,07,28,00,00,15.80
2009,07,28,00,01,15.80
2009,07,28,00,02,15.80
2009,07,28,00,03,15.80
2009,07,28,00,04,15.80
2009,07,28,00,05,15.80
2009,07,28,00,06,15.80
2009,07,28,00,07,15.80
2009,07,28,00,08,15.90
2009,07,28,00,09,15.90
2009,07,28,00,10,15.90
2009,07,28,00,11,15.90
2009,07,28,00,12,15.90
2009,07,28,00,13,15.90
2009,07,28,00,14,15.90
2009,07,28,00,15,16.00
2009,07,28,00,16,16.10
2009,07,28,00,17,16.10
2009,07,28,00,18,16.10
2009,07,28,00,19,16.10
2009,07,28,00,20,16.10
2009,07,28,00,21,16.10
2009,07,28,00,22,16.10
2009,07,28,00,23,16.10
2009,07,28,00,24,16.10
2009,07,28,00,25,16.10
2009,07,28,00,26,16.10
2009,07,28,00,27,16.10
2009,07,28,00,28,16.10
2009,07,28,00,29,16.10
2009,07,28,00,30,16.10
2009,07,28,00,31,16.20
2009,07,28,00,32,16.20
2009,07,28,00,33,16.20
2009,07,28,00,34,16.30
2009,07,28,00,35,16.30
2009,07,28,00,36,16.30
2009,07,28,00,37,16.30
2009,07,28,00,38,16.30
2009,07,28,00,39,16.30
2009,07,28,00,40,16.30
2009,07,28,00,41,16.30
2009,07,28,00,42,16.30
2009,07,28,00,43,16.30
2009,07,28,00,44,16.30
2009,07,28,00,45,16.30
2009,07,28,00,46,16.40
2009,07,28,00,47,16.40
2009,07,28,00,48,16.40
2009,07,28,00,49,16.40
2009,07,28,00,50,16.40
2009,07,28,00,51,16.40
2009,07,28,00,52,16.40
2009,07,28,00,53,16.40
2009,07,28,00,54,16.40
2009,07,28,00,55,16.50
2009,07,28,00,56,16.60
2009,07,28,00,57,16.60
2009,07,28,00,58,16.60
2009,07,28,00,59,16.60
2009,07,28,01,00,16.60
2009,07,28,01,01,16.60
2009,07,28,01,02,16.60
2009,07,28,01,03,16.60
2009,07,28,01,04,16.60
2009,07,28,01,05,16.60
2009,07,28,01,06,16.60
2009,07,28,01,07,16.60
2009,07,28,01,08,16.60
2009,07,28,01,09,16.60
2009,07,28,01,10,16.60
2009,07,28,01,11,16.60
2009,07,28,01,12,16.60
2009,07,28,01,13,16.60
2009,07,28,01,14,16.60
2009,07,28,01,15,16.70
2009,07,28,01,16,16.70
2009,07,28,01,17,16.70
2009,07,28,01,18,16.70
2009,07,28,01,19,16.70
2009,07,28,01,20,16.70
2009,07,28,01,21,16.70
2009,07,28,01,22,16.70
2009,07,28,01,23,16.70
2009,07,28,01,24,16.70
2009,07,28,01,25,16.70
2009,07,28,01,26,16.70
2009,07,28,01,27,16.70
2009,07,28,01,28,16.70
2009,07,28,01,29,16.70
2009,07,28,01,30,16.70
2009,07,28,01,31,16.70
2009,07,28,01,32,16.70
2009,07,28,01,33,16.70
2009,07,28,01,34,16.70
2009,07,28,01,35,16.70
2009,07,28,01,36,16.70
2009,07,28,01,37,16.70
2009,07,28,01,38,16.70
2009,07,28,01,39,16.70
2009,07,28,01,40,16.70
2009,07,28,01,41,16.70
2009,07,28,01,42,16.70
2009,07,28,01,43,16.70
2009,07,28,01,44,16.70
2009,07,28,01,45,16.70
2009,07,28,01,46,16.70
2009,07,28,01,47,16.70
2009,07,28,01,48,16.70
2009,07,28,01,49,16.70
2009,07,28,01,50,16.70
2009,07,28,01,51,16.70
2009,07,28,01,52,16.70
2009,07,28,01,53,16.70
2009,07,28,01,54,16.70
2009,07,28,01,55,16.70
2009,07,28,01,56,16.70
2009,07,28,01,57,16.70
2009,07,28,01,58,16.70
2009,07,28,01,59,16.70
2009,07,28,02,00,16.70
2009,07,28,02,01,16.60
2009,07,28,02,02,16.60
2009,07,28,02,03,16.60
2009,07,28,02,04,16.60
2009,07,28,02,05,16.60
2009,07,28,02,06,16.60
2009,07,28,02,07,16.60
2009,07,28,02,08,16.60
2009,07,28,02,09,16.60
2009,07,28,02,10,16.70
2009,07,28,02,11,16.70
2009,07,28,02,12,16.70
2009,07,28,02,13,16.70
2009,07,28,02,14,16.70
2009,07,28,02,15,16.70
2009,07,28,02,16,16.70
2009,07,28,02,17,16.70
2009,07,28,02,18,16.70
2009,07,28,02,19,16.70
2009,07,28,02,20,16.70
2009,07,28,02,21,16.70
2009,07,28,02,22,16.70
2009,07,28,02,23,16.70
2009,07,28,02,24,16.70
2009,07,28,02,25,16.70
2009,07,28,02,26,16.70
2009,07,28,02,27,16.70
2009,07,28,02,28,16.70
2009,07,28,02,29,16.70
2009,07,28,02,30,16.70
2009,07,28,02,31,16.70
2009,07,28,02,32,16.70
2009,07,28,02,33,16.70
2009,07,28,02,34,16.70
2009,07,28,02,35,16.70
2009,07,28,02,36,16.70
2009,07,28,02,37,16.70
2009,07,28,02,38,16.70
2009,07,28,02,39,16.70
2009,07,28,02,40,16.70
2009,07,28,02,41,16.80
2009,07,28,02,42,16.80
2009,07,28,02,43,16.80
2009,07,28,02,44,16.80
2009,07,28,02,45,16.80
2009,07,28,02,46,16.70
2009,07,28,02,47,16.70
2009,07,28,02,48,16.70
2009,07,28,02,49,16.70
2009,07,28,02,50,16.70
2009,07,28,02,51,16.70
2009,07,28,02,52,16.70
2009,07,28,02,53,16.70
2009,07,28,02,54,16.70
2009,07,28,02,55,16.70
2009,07,28,02,56,16.70
2009,07,28,02,57,16.70
2009,07,28,02,58,16.70
2009,07,28,02,59,16.70
2009,07,28,03,00,16.80
2009,07,28,03,01,16.80
2009,07,28,03,02,16.80
2009,07,28,03,03,16.90
2009,07,28,03,04,16.90
2009,07,28,03,05,16.90
2009,07,28,03,06,16.90
2009,07,28,03,07,16.90
2009,07,28,03,08,16.90
2009,07,28,03,09,16.80
2009,07,28,03,10,16.80
2009,07,28,03,11,16.80
2009,07,28,03,12,16.80
2009,07,28,03,13,16.90
2009,07,28,03,14,16.90
2009,07,28,03,15,16.90
2009,07,28,03,16,16.90
2009,07,28,03,17,16.90
2009,07,28,03,18,16.90
2009,07,28,03,19,16.90
2009,07,28,03,20,16.90
2009,07,28,03,21,16.90
2009,07,28,03,22,16.90
2009,07,28,03,23,16.90
2009,07,28,03,24,17.00
2009,07,28,03,25,17.00
2009,07,28,03,26,17.10
2009,07,28,03,27,17.10
2009,07,28,03,28,17.10
2009,07,28,03,29,17.10
2009,07,28,03,30,17.10
2009,07,28,03,31,17.10
2009,07,28,03,32,17.10
2009,07,28,03,33,17.10
2009,07,28,03,34,17.10
2009,07,28,03,35,17.10
2009,07,28,03,36,17.00
2009,07,28,03,37,17.00
2009,07,28,03,38,17.00
2009,07,28,03,39,16.90
2009,07,28,03,40,16.90
2009,07,28,03,41,16.80
2009,07,28,03,42,16.80
2009,07,28,03,43,16.70
2009,07,28,03,44,16.70
2009,07,28,03,45,16.70
2009,07,28,03,46,16.70
2009,07,28,03,47,16.60
2009,07,28,03,48,16.60
2009,07,28,03,49,16.60
2009,07,28,03,50,16.50
2009,07,28,03,51,16.40
2009,07,28,03,52,16.40
2009,07,28,03,53,16.40
2009,07,28,03,54,16.40
2009,07,28,03,55,16.30
2009,07,28,03,56,16.20
2009,07,28,03,57,16.10
2009,07,28,03,58,15.90
2009,07,28,03,59,15.70
2009,07,28,04,00,15.60
2009,07,28,04,01,15.50
2009,07,28,04,02,15.40
2009,07,28,04,03,15.30
2009,07,28,04,04,15.30
2009,07,28,04,05,15.20
2009,07,28,04,06,15.20
2009,07,28,04,07,15.20
2009,07,28,04,08,15.10
2009,07,28,04,09,15.10
2009,07,28,04,10,15.00
2009,07,28,04,11,15.00
2009,07,28,04,12,14.90
2009,07,28,04,13,14.90
2009,07,28,04,14,14.90
2009,07,28,04,15,14.80
2009,07,28,04,16,14.80
2009,07,28,04,17,14.80
2009,07,28,04,18,14.80
2009,07,28,04,19,14.70
2009,07,28,04,20,14.70
2009,07,28,04,21,14.60
2009,07,28,04,22,14.60
2009,07,28,04,23,14.60
2009,07,28,04,24,14.60
2009,07,28,04,25,14.50
2009,07,28,04,26,14.50
2009,07,28,04,27,14.40
2009,07,28,04,28,14.40
2009,07,28,04,29,14.30
2009,07,28,04,30,14.30
2009,07,28,04,31,14.20
2009,07,28,04,32,14.20
2009,07,28,04,33,14.20
2009,07,28,04,34,14.20
2009,07,28,04,35,14.10
2009,07,28,04,36,14.10
2009,07,28,04,37,14.10
2009,07,28,04,38,14.10
2009,07,28,04,39,14.10
2009,07,28,04,40,14.10
2009,07,28,04,41,14.10
2009,07,28,04,42,14.10
2009,07,28,04,43,14.10
2009,07,28,04,44,14.10
2009,07,28,04,45,14.10
2009,07,28,04,46,14.10
2009,07,28,04,47,14.10
2009,07,28,04,48,14.10
2009,07,28,04,49,14.10
2009,07,28,04,50,14.10
2009,07,28,04,51,14.10
2009,07,28,04,52,14.20
2009,07,28,04,53,14.20
2009,07,28,04,54,14.20
2009,07,28,04,55,14.20
2009,07,28,04,56,14.20
2009,07,28,04,57,14.20
2009,07,28,04,58,14.20
2009,07,28,04,59,14.20
2009,07,28,05,00,14.20
2009,07,28,05,01,14.10
2009,07,28,05,02,14.10
2009,07,28,05,03,14.10
2009,07,28,05,04,14.10
2009,07,28,05,05,14.10
2009,07,28,05,06,14.10
2009,07,28,05,07,14.10
2009,07,28,05,08,14.10
2009,07,28,05,09,14.10
2009,07,28,05,10,14.10
2009,07,28,05,11,14.10
2009,07,28,05,12,14.10
2009,07,28,05,13,14.10
2009,07,28,05,14,14.20
2009,07,28,05,15,14.20
2009,07,28,05,16,14.20
2009,07,28,05,17,14.20
2009,07,28,05,18,14.20
2009,07,28,05,19,14.20
2009,07,28,05,20,14.20
2009,07,28,05,21,14.20
2009,07,28,05,22,14.20
2009,07,28,05,23,14.20
2009,07,28,05,24,14.20
2009,07,28,05,25,14.20
2009,07,28,05,26,14.20
2009,07,28,05,27,14.20
2009,07,28,05,28,14.20
2009,07,28,05,29,14.20
2009,07,28,05,30,14.30
2009,07,28,05,31,14.30
2009,07,28,05,32,14.40
2009,07,28,05,33,14.40
2009,07,28,05,34,14.50
2009,07,28,05,35,14.50
2009,07,28,05,36,14.50
2009,07,28,05,37,14.60
2009,07,28,05,38,14.60
2009,07,28,05,39,14.60
2009,07,28,05,40,14.60
2009,07,28,05,41,14.60
2009,07,28,05,42,14.60
2009,07,28,05,43,14.70
2009,07,28,05,44,14.70
2009,07,28,05,45,14.70
2009,07,28,05,46,14.70
2009,07,28,05,47,14.70
2009,07,28,05,48,14.80
2009,07,28,05,49,14.80
2009,07,28,05,50,14.80
2009,07,28,05,51,14.80
2009,07,28,05,52,14.80
2009,07,28,05,53,14.90
2009,07,28,05,54,14.90
2009,07,28,05,55,14.90
2009,07,28,05,56,14.90
2009,07,28,05,57,14.90
2009,07,28,05,58,15.00
2009,07,28,05,59,15.00
2009,07,28,06,00,15.00
2009,07,28,06,01,15.10
2009,07,28,06,02,15.10
2009,07,28,06,03,15.20
2009,07,28,06,04,15.30
2009,07,28,06,05,15.30
2009,07,28,06,06,15.40
2009,07,28,06,07,15.50
2009,07,28,06,08,15.50
2009,07,28,06,09,15.50
2009,07,28,06,10,15.50
2009,07,28,06,11,15.60
2009,07,28,06,12,15.60
2009,07,28,06,13,15.60
2009,07,28,06,14,15.60
2009,07,28,06,15,15.70
2009,07,28,06,16,15.70
2009,07,28,06,17,15.70
2009,07,28,06,18,15.70
2009,07,28,06,19,15.70
2009,07,28,06,20,15.70
2009,07,28,06,21,15.70
2009,07,28,06,22,15.70
2009,07,28,06,23,15.70
2009,07,28,06,24,15.70
2009,07,28,06,25,15.70
2009,07,28,06,26,15.80
2009,07,28,06,27,15.80
2009,07,28,06,28,15.80
2009,07,28,06,29,15.80
2009,07,28,06,30,15.80
2009,07,28,06,31,15.80
2009,07,28,06,32,15.80
2009,07,28,06,33,15.80
2009,07,28,06,34,15.90
2009,07,28,06,35,15.90
2009,07,28,06,36,16.00
2009,07,28,06,37,16.10
2009,07,28,06,38,16.10
2009,07,28,06,39,16.20
2009,07,28,06,40,16.20
2009,07,28,06,41,16.30
2009,07,28,06,42,16.30
2009,07,28,06,43,16.30
2009,07,28,06,44,16.30
2009,07,28,06,45,16.40
2009,07,28,06,46,16.40
2009,07,28,06,47,16.50
2009,07,28,06,48,16.60
2009,07,28,06,49,16.70
2009,07,28,06,50,16.70
2009,07,28,06,51,16.80
2009,07,28,06,52,16.90
2009,07,28,06,53,17.00
2009,07,28,06,54,17.00
2009,07,28,06,55,17.10
2009,07,28,06,56,17.20
2009,07,28,06,57,17.30
2009,07,28,06,58,17.30
2009,07,28,06,59,17.40
2009,07,28,07,00,17.50
2009,07,28,07,01,17.60
2009,07,28,07,02,17.70
2009,07,28,07,03,17.70
2009,07,28,07,04,17.70
2009,07,28,07,05,17.70
2009,07,28,07,06,17.60
2009,07,28,07,07,17.60
2009,07,28,07,08,17.60
2009,07,28,07,09,17.50
2009,07,28,07,10,17.50
2009,07,28,07,11,17.50
2009,07,28,07,12,17.50
2009,07,28,07,13,17.50
2009,07,28,07,14,17.50
2009,07,28,07,15,17.60
2009,07,28,07,16,17.60
2009,07,28,07,17,17.70
2009,07,28,07,18,17.70
2009,07,28,07,19,17.70
2009,07,28,07,20,17.70
2009,07,28,07,21,17.80
2009,07,28,07,22,17.80
2009,07,28,07,23,17.90
2009,07,28,07,24,17.90
2009,07,28,07,25,18.00
2009,07,28,07,26,18.10
2009,07,28,07,27,18.30
2009,07,28,07,28,18.40
2009,07,28,07,29,18.50
2009,07,28,07,30,18.60
2009,07,28,07,31,18.70
2009,07,28,07,32,18.90
2009,07,28,07,33,19.00
2009,07,28,07,34,19.10
2009,07,28,07,35,19.30
2009,07,28,07,36,19.40
2009,07,28,07,37,19.50
2009,07,28,07,38,19.60
2009,07,28,07,39,19.70
2009,07,28,07,40,19.80
2009,07,28,07,41,19.90
2009,07,28,07,42,20.10
2009,07,28,07,43,20.20
2009,07,28,07,44,20.30
2009,07,28,07,45,20.40
2009,07,28,07,46,20.50
2009,07,28,07,47,20.50
2009,07,28,07,48,20.60
2009,07,28,07,49,20.70
2009,07,28,07,50,20.80
2009,07,28,07,51,20.90
2009,07,28,07,52,21.00
2009,07,28,07,53,21.00
2009,07,28,07,54,21.10
2009,07,28,07,55,21.10
2009,07,28,07,56,21.20
2009,07,28,07,57,21.30
2009,07,28,07,58,21.30
2009,07,28,07,59,21.30
2009,07,28,08,00,21.30
2009,07,28,08,01,21.30
2009,07,28,08,02,21.30
2009,07,28,08,03,21.30
2009,07,28,08,04,21.20
2009,07,28,08,05,21.20
2009,07,28,08,06,21.20
2009,07,28,08,07,21.10
2009,07,28,08,08,21.10
2009,07,28,08,09,21.20
2009,07,28,08,10,21.20
2009,07,28,08,11,21.20
2009,07,28,08,12,21.30
2009,07,28,08,13,21.30
2009,07,28,08,14,21.40
2009,07,28,08,15,21.50
2009,07,28,08,16,21.60
2009,07,28,08,17,21.70
2009,07,28,08,18,21.90
2009,07,28,08,19,22.00
2009,07,28,08,20,22.10
2009,07,28,08,21,22.20
2009,07,28,08,22,22.30
2009,07,28,08,23,22.30
2009,07,28,08,24,22.40
2009,07,28,08,25,22.40
2009,07,28,08,26,22.40
2009,07,28,08,27,22.40
2009,07,28,08,28,22.40
2009,07,28,08,29,22.40
2009,07,28,08,30,22.40
2009,07,28,08,31,22.40
2009,07,28,08,32,22.40
2009,07,28,08,33,22.40
2009,07,28,08,34,22.40
2009,07,28,08,35,22.40
2009,07,28,08,36,22.40
2009,07,28,08,37,22.40
2009,07,28,08,38,22.50
2009,07,28,08,39,22.50
2009,07,28,08,40,22.40
2009,07,28,08,41,22.30
2009,07,28,08,42,22.20
2009,07,28,08,43,22.10
2009,07,28,08,44,22.00
2009,07,28,08,45,21.90
2009,07,28,08,46,21.80
2009,07,28,08,47,21.70
2009,07,28,08,48,21.60
2009,07,28,08,49,21.60
2009,07,28,08,50,21.60
2009,07,28,08,51,21.60
2009,07,28,08,52,21.60
2009,07,28,08,53,21.70
2009,07,28,08,54,21.70
2009,07,28,08,55,21.70
2009,07,28,08,56,21.60
2009,07,28,08,57,21.60
2009,07,28,08,58,21.60
2009,07,28,08,59,21.40
2009,07,28,09,00,21.40
2009,07,28,09,01,21.30
2009,07,28,09,02,21.30
2009,07,28,09,03,21.40
2009,07,28,09,04,21.50
2009,07,28,09,05,21.60
2009,07,28,09,06,21.60
2009,07,28,09,07,21.80
2009,07,28,09,08,21.90
2009,07,28,09,09,22.00
2009,07,28,09,10,22.00
2009,07,28,09,11,22.10
2009,07,28,09,12,22.10
2009,07,28,09,13,22.20
2009,07,28,09,14,22.30
2009,07,28,09,15,22.30
2009,07,28,09,16,22.40
2009,07,28,09,17,22.40
2009,07,28,09,18,22.40
2009,07,28,09,19,22.40
2009,07,28,09,20,22.40
2009,07,28,09,21,22.40
2009,07,28,09,22,22.40
2009,07,28,09,23,22.40
2009,07,28,09,24,22.40
2009,07,28,09,25,22.50
2009,07,28,09,26,22.50
2009,07,28,09,27,22.50
2009,07,28,09,28,22.60
2009,07,28,09,29,22.60
2009,07,28,09,30,22.70
2009,07,28,09,31,22.70
2009,07,28,09,32,22.80
2009,07,28,09,33,22.80
2009,07,28,09,34,22.90
2009,07,28,09,35,22.90
2009,07,28,09,36,22.90
2009,07,28,09,37,22.90
2009,07,28,09,38,22.90
2009,07,28,09,39,23.00
2009,07,28,09,40,23.10
2009,07,28,09,41,23.10
2009,07,28,09,42,23.20
2009,07,28,09,43,23.20
2009,07,28,09,44,23.30
2009,07,28,09,45,23.30
2009,07,28,09,46,23.30
2009,07,28,09,47,23.30
2009,07,28,09,48,23.30
2009,07,28,09,49,23.30
2009,07,28,09,50,23.30
2009,07,28,09,51,23.30
2009,07,28,09,52,23.30
2009,07,28,09,53,23.30
2009,07,28,09,54,23.50
2009,07,28,09,55,23.60
2009,07,28,09,56,23.70
2009,07,28,09,57,23.70
2009,07,28,09,58,23.80
2009,07,28,09,59,23.90
2009,07,28,10,00,24.10
2009,07,28,10,01,24.10
2009,07,28,10,02,24.10
2009,07,28,10,03,24.20
2009,07,28,10,04,24.30
2009,07,28,10,05,24.50
2009,07,28,10,06,24.60
2009,07,28,10,07,24.70
2009,07,28,10,08,24.80
2009,07,28,10,09,24.90
2009,07,28,10,10,25.10
2009,07,28,10,11,25.10
2009,07,28,10,12,25.20
2009,07,28,10,13,25.20
2009,07,28,10,14,25.30
2009,07,28,10,15,25.30
2009,07,28,10,16,25.40
2009,07,28,10,17,25.40
2009,07,28,10,18,25.50
2009,07,28,10,19,25.50
2009,07,28,10,20,25.60
2009,07,28,10,21,25.60
2009,07,28,10,22,25.60
2009,07,28,10,23,25.70
2009,07,28,10,24,25.70
2009,07,28,10,25,25.80
2009,07,28,10,26,25.80
2009,07,28,10,27,25.80
2009,07,28,10,28,25.80
2009,07,28,10,29,25.70
2009,07,28,10,30,25.70
2009,07,28,10,31,25.70
2009,07,28,10,32,25.70
2009,07,28,10,33,25.70
2009,07,28,10,34,25.70
2009,07,28,10,35,25.70
2009,07,28,10,36,25.70
2009,07,28,10,37,25.80
2009,07,28,10,38,25.80
2009,07,28,10,39,25.80
2009,07,28,10,40,25.70
2009,07,28,10,41,25.70
2009,07,28,10,42,25.70
2009,07,28,10,43,25.80
2009,07,28,10,44,25.80
2009,07,28,10,45,25.80
2009,07,28,10,46,25.80
2009,07,28,10,47,25.80
2009,07,28,10,48,25.90
2009,07,28,10,49,25.90
2009,07,28,10,50,26.00
2009,07,28,10,51,26.00
2009,07,28,10,52,26.00
2009,07,28,10,53,26.00
2009,07,28,10,54,25.90
2009,07,28,10,55,25.90
2009,07,28,10,56,25.90
2009,07,28,10,57,26.00
2009,07,28,10,58,26.00
2009,07,28,10,59,26.10
2009,07,28,11,00,26.20
2009,07,28,11,01,26.30
2009,07,28,11,02,26.40
2009,07,28,11,03,26.50
2009,07,28,11,04,26.60
2009,07,28,11,05,26.70
2009,07,28,11,06,26.70
2009,07,28,11,07,26.70
2009,07,28,11,08,26.60
2009,07,28,11,09,26.60
2009,07,28,11,10,26.60
2009,07,28,11,11,26.60
2009,07,28,11,12,26.50
2009,07,28,11,13,26.50
2009,07,28,11,14,26.60
2009,07,28,11,15,26.60
2009,07,28,11,16,26.50
2009,07,28,11,17,26.40
2009,07,28,11,18,26.60
2009,07,28,11,19,26.60
2009,07,28,11,20,26.70
2009,07,28,11,21,26.80
2009,07,28,11,22,27.00
2009,07,28,11,23,27.10
2009,07,28,11,24,27.20
2009,07,28,11,25,27.30
2009,07,28,11,26,27.30
2009,07,28,11,27,27.30
2009,07,28,11,28,27.30
2009,07,28,11,29,27.40
2009,07,28,11,30,27.50
2009,07,28,11,31,27.60
2009,07,28,11,32,27.70
2009,07,28,11,33,27.70
2009,07,28,11,34,27.80
2009,07,28,11,35,27.90
2009,07,28,11,36,28.00
2009,07,28,11,37,28.10
2009,07,28,11,38,28.20
2009,07,28,11,39,28.20
2009,07,28,11,40,28.30
2009,07,28,11,41,28.40
2009,07,28,11,42,28.40
2009,07,28,11,43,28.40
2009,07,28,11,44,28.50
2009,07,28,11,45,28.60
2009,07,28,11,46,28.60
2009,07,28,11,47,28.70
2009,07,28,11,48,28.80
2009,07,28,11,49,28.90
2009,07,28,11,50,28.90
2009,07,28,11,51,28.90
2009,07,28,11,52,29.00
2009,07,28,11,53,29.00
2009,07,28,11,54,28.90
2009,07,28,11,55,28.90
2009,07,28,11,56,28.80
2009,07,28,11,57,28.60
2009,07,28,11,58,28.40
2009,07,28,11,59,28.30
2009,07,28,12,00,28.30
2009,07,28,12,01,28.30
2009,07,28,12,02,28.30
2009,07,28,12,03,28.30
2009,07,28,12,04,28.30
2009,07,28,12,05,28.40
2009,07,28,12,06,28.40
2009,07,28,12,07,28.50
2009,07,28,12,08,28.60
2009,07,28,12,09,28.70
2009,07,28,12,10,28.60
2009,07,28,12,11,28.60
2009,07,28,12,12,28.70
2009,07,28,12,13,28.70
2009,07,28,12,14,28.80
2009,07,28,12,15,28.90
2009,07,28,12,16,28.80
2009,07,28,12,17,28.70
2009,07,28,12,18,28.70
2009,07,28,12,19,28.70
2009,07,28,12,20,28.70
2009,07,28,12,21,28.70
2009,07,28,12,22,28.60
2009,07,28,12,23,28.60
2009,07,28,12,24,28.60
2009,07,28,12,25,28.50
2009,07,28,12,26,28.40
2009,07,28,12,27,28.30
2009,07,28,12,28,28.40
2009,07,28,12,29,28.40
2009,07,28,12,30,28.30
2009,07,28,12,31,28.30
2009,07,28,12,32,28.20
2009,07,28,12,33,28.10
2009,07,28,12,34,28.10
2009,07,28,12,35,28.10
2009,07,28,12,36,28.20
2009,07,28,12,37,28.30
2009,07,28,12,38,28.30
2009,07,28,12,39,28.40
2009,07,28,12,40,28.40
2009,07,28,12,41,28.60
2009,07,28,12,42,28.60
2009,07,28,12,43,28.60
2009,07,28,12,44,28.60
2009,07,28,12,45,28.60
2009,07,28,12,46,28.60
2009,07,28,12,47,28.60
2009,07,28,12,48,28.60
2009,07,28,12,49,28.70
2009,07,28,12,50,28.70
2009,07,28,12,51,28.70
2009,07,28,12,52,28.70
2009,07,28,12,53,28.60
2009,07,28,12,54,28.50
2009,07,28,12,55,28.40
2009,07,28,12,56,28.30
2009,07,28,12,57,28.40
2009,07,28,12,58,28.40
2009,07,28,12,59,28.40
2009,07,28,13,00,28.40
2009,07,28,13,01,28.40
2009,07,28,13,02,28.40
2009,07,28,13,03,28.40
2009,07,28,13,04,28.40
2009,07,28,13,05,28.40
2009,07,28,13,06,28.40
2009,07,28,13,07,28.30
2009,07,28,13,08,28.30
2009,07,28,13,09,28.20
2009,07,28,13,10,28.20
2009,07,28,13,11,28.20
2009,07,28,13,12,28.20
2009,07,28,13,13,28.20
2009,07,28,13,14,28.20
2009,07,28,13,15,28.30
2009,07,28,13,16,28.30
2009,07,28,13,17,28.40
2009,07,28,13,18,28.40
2009,07,28,13,19,28.40
2009,07,28,13,20,28.40
2009,07,28,13,21,28.50
2009,07,28,13,22,28.40
2009,07,28,13,23,28.30
2009,07,28,13,24,28.20
2009,07,28,13,25,28.00
2009,07,28,13,26,27.90
2009,07,28,13,27,27.80
2009,07,28,13,28,27.60
2009,07,28,13,29,27.50
2009,07,28,13,30,27.50
2009,07,28,13,31,27.60
2009,07,28,13,32,27.70
2009,07,28,13,33,27.70
2009,07,28,13,34,27.70
2009,07,28,13,35,27.90
2009,07,28,13,36,27.90
2009,07,28,13,37,27.90
2009,07,28,13,38,27.80
2009,07,28,13,39,27.90
2009,07,28,13,40,28.00
2009,07,28,13,41,28.10
2009,07,28,13,42,28.20
2009,07,28,13,43,28.20
2009,07,28,13,44,28.10
2009,07,28,13,45,28.00
2009,07,28,13,46,27.90
2009,07,28,13,47,27.90
2009,07,28,13,48,27.90
2009,07,28,13,49,27.80
2009,07,28,13,50,27.70
2009,07,28,13,51,27.60
2009,07,28,13,52,27.60
2009,07,28,13,53,27.70
2009,07,28,13,54,27.80
2009,07,28,13,55,27.80
2009,07,28,13,56,27.80
2009,07,28,13,57,27.70
2009,07,28,13,58,27.60
2009,07,28,13,59,27.60
2009,07,28,14,00,27.60
2009,07,28,14,01,27.60
2009,07,28,14,02,27.60
2009,07,28,14,03,27.60
2009,07,28,14,04,27.60
2009,07,28,14,05,27.60
2009,07,28,14,06,27.60
2009,07,28,14,07,27.70
2009,07,28,14,08,27.70
2009,07,28,14,09,27.70
2009,07,28,14,10,27.70
2009,07,28,14,11,27.80
2009,07,28,14,12,27.80
2009,07,28,14,13,27.60
2009,07,28,14,14,27.60
2009,07,28,14,15,27.50
2009,07,28,14,16,27.40
2009,07,28,14,17,27.30
2009,07,28,14,18,27.30
2009,07,28,14,19,27.40
2009,07,28,14,20,27.50
2009,07,28,14,21,27.60
2009,07,28,14,22,27.60
2009,07,28,14,23,27.60
2009,07,28,14,24,27.70
2009,07,28,14,25,27.90
2009,07,28,14,26,28.00
2009,07,28,14,27,28.10
2009,07,28,14,28,28.10
2009,07,28,14,29,28.00
2009,07,28,14,30,27.90
2009,07,28,14,31,27.80
2009,07,28,14,32,27.80
2009,07,28,14,33,27.80
2009,07,28,14,34,27.80
2009,07,28,14,35,27.80
2009,07,28,14,36,27.80
2009,07,28,14,37,27.80
2009,07,28,14,38,27.80
2009,07,28,14,39,27.80
2009,07,28,14,40,27.80
2009,07,28,14,41,27.80
2009,07,28,14,42,27.70
2009,07,28,14,43,27.50
2009,07,28,14,44,27.40
2009,07,28,14,45,27.30
2009,07,28,14,46,27.30
2009,07,28,14,47,27.30
2009,07,28,14,48,27.30
2009,07,28,14,49,27.30
2009,07,28,14,50,27.30
2009,07,28,14,51,27.30
2009,07,28,14,52,27.30
2009,07,28,14,53,27.30
2009,07,28,14,54,27.40
2009,07,28,14,55,27.50
2009,07,28,14,56,27.60
2009,07,28,14,57,27.60
2009,07,28,14,58,27.60
2009,07,28,14,59,27.70
2009,07,28,15,00,27.70
2009,07,28,15,01,27.80
2009,07,28,15,02,27.90
2009,07,28,15,03,28.00
2009,07,28,15,04,28.10
2009,07,28,15,05,28.10
2009,07,28,15,06,28.10
2009,07,28,15,07,28.20
2009,07,28,15,08,28.30
2009,07,28,15,09,28.30
2009,07,28,15,10,28.40
2009,07,28,15,11,28.40
2009,07,28,15,12,28.30
2009,07,28,15,13,28.30
2009,07,28,15,14,28.30
2009,07,28,15,15,28.30
2009,07,28,15,16,28.40
2009,07,28,15,17,28.40
2009,07,28,15,18,28.40
2009,07,28,15,19,28.40
2009,07,28,15,20,28.40
2009,07,28,15,21,28.40
2009,07,28,15,22,28.60
2009,07,28,15,23,28.60
2009,07,28,15,24,28.70
2009,07,28,15,25,28.80
2009,07,28,15,26,28.90
2009,07,28,15,27,28.90
2009,07,28,15,28,29.00
2009,07,28,15,29,29.10
2009,07,28,15,30,29.10
2009,07,28,15,31,29.10
2009,07,28,15,32,29.10
2009,07,28,15,33,29.10
2009,07,28,15,34,29.10
2009,07,28,15,35,29.10
2009,07,28,15,36,29.20
2009,07,28,15,37,29.20
2009,07,28,15,38,29.10
2009,07,28,15,39,29.10
2009,07,28,15,40,29.10
2009,07,28,15,41,29.20
2009,07,28,15,42,29.20
2009,07,28,15,43,29.30
2009,07,28,15,44,29.30
2009,07,28,15,45,29.40
2009,07,28,15,46,29.50
2009,07,28,15,47,29.70
2009,07,28,15,48,29.80
2009,07,28,15,49,29.80
2009,07,28,15,50,29.90
2009,07,28,15,51,29.80
2009,07,28,15,52,29.70
2009,07,28,15,53,29.60
2009,07,28,15,54,29.60
2009,07,28,15,55,29.60
2009,07,28,15,56,29.60
2009,07,28,15,57,29.60
2009,07,28,15,58,29.60
2009,07,28,15,59,29.60
2009,07,28,16,00,29.70
2009,07,28,16,01,29.70
2009,07,28,16,02,29.70
2009,07,28,16,03,29.70
2009,07,28,16,04,29.80
2009,07,28,16,05,29.80
2009,07,28,16,06,29.80
2009,07,28,16,07,29.80
2009,07,28,16,08,29.80
2009,07,28,16,09,29.80
2009,07,28,16,10,29.90
2009,07,28,16,11,30.00
2009,07,28,16,12,30.10
2009,07,28,16,13,30.20
2009,07,28,16,14,30.30
2009,07,28,16,15,30.40
2009,07,28,16,16,30.60
2009,07,28,16,17,30.60
2009,07,28,16,18,30.60
2009,07,28,16,19,30.60
2009,07,28,16,20,30.60
2009,07,28,16,21,30.60
2009,07,28,16,22,30.60
2009,07,28,16,23,30.70
2009,07,28,16,24,30.70
2009,07,28,16,25,30.80
2009,07,28,16,26,30.90
2009,07,28,16,27,30.90
2009,07,28,16,28,31.00
2009,07,28,16,29,31.00
2009,07,28,16,30,31.10
2009,07,28,16,31,31.10
2009,07,28,16,32,31.20
2009,07,28,16,33,31.30
2009,07,28,16,34,31.30
2009,07,28,16,35,31.40
2009,07,28,16,36,31.40
2009,07,28,16,37,31.40
2009,07,28,16,38,31.40
2009,07,28,16,39,31.50
2009,07,28,16,40,31.60
2009,07,28,16,41,31.60
2009,07,28,16,42,31.60
2009,07,28,16,43,31.50
2009,07,28,16,44,31.40
2009,07,28,16,45,31.40
2009,07,28,16,46,31.40
2009,07,28,16,47,31.40
2009,07,28,16,48,31.40
2009,07,28,16,49,31.40
2009,07,28,16,50,31.50
2009,07,28,16,51,31.60
2009,07,28,16,52,31.70
2009,07,28,16,53,31.70
2009,07,28,16,54,31.80
2009,07,28,16,55,31.90
2009,07,28,16,56,31.90
2009,07,28,16,57,32.00
2009,07,28,16,58,32.00
2009,07,28,16,59,32.10
2009,07,28,17,00,32.10
2009,07,28,17,01,31.90
2009,07,28,17,02,31.90
2009,07,28,17,03,31.90
2009,07,28,17,04,31.90
2009,07,28,17,05,31.90
2009,07,28,17,06,31.80
2009,07,28,17,07,31.80
2009,07,28,17,08,31.80
2009,07,28,17,09,31.80
2009,07,28,17,10,31.80
2009,07,28,17,11,31.80
2009,07,28,17,12,31.80
2009,07,28,17,13,31.80
2009,07,28,17,14,31.80
2009,07,28,17,15,31.70
2009,07,28,17,16,31.60
2009,07,28,17,17,31.60
2009,07,28,17,18,31.50
2009,07,28,17,19,31.40